Weather History for Mobridge, SD

Change the Weather History Date:

Friday, May 10, 2013

  Actual Average Record
Temperature  
Mean Temperature 55 °F 54 °F  
Max Temperature 79 °F 67 °F 91 °F (1987)
Min Temperature 30 °F 42 °F 22 °F (1945)
Degree Days  
Heating Degree Days 10 11  
Month to date heating degree days 168 123  
Since 1 July heating degree days 8066 7718  
Cooling Degree Days 0 0  
Month to date cooling degree days 0 0  
Year to date cooling degree days 0 1  
Growing Degree Days 6 (Base 50)    
Moisture  
Dew Point 30 °F    
Average Humidity 47    
Maximum Humidity 72    
Minimum Humidity 21    
Precipitation  
Precipitation T in 0.09 in 0.86 in (1956)
Month to date precipitation T 0.87  
Year to date precipitation 3.05 4.07  
Sea Level Pressure  
Sea Level Pressure 30.09 in    
Wind  
Wind Speed 10 mph (NW)    
Max Wind Speed 31 mph    
Max Gust Speed 41 mph    
Visibility 10 miles    
Events      
T = Trace of Precipitation, MM = Missing Value Source: NWS Daily Summary

Daily Weather History Graph

Daily Weather History Graph

Search for Another Location

Airport:

Trip Planner

Search our weather history database for the weather conditions in past years. The results will help you decide how hot, cold, wet, or windy it might be!

Date:

Astronomy

May. 10, 2013 Rise Set
Actual Time 6:16 AM CDT 9:00 PM CDT
Civil Twilight 5:42 AM CDT 9:34 PM CDT
Nautical Twilight 4:59 AM CDT 10:17 PM CDT
Astronomical Twilight 4:09 AM CDT 11:07 PM CDT
Moon 6:41 AM CDT (5/10) 9:52 PM CDT (5/10)
Length of Visible Light 15h 51m
Length of Day
14h 43m
New Moon, 0% of the Moon is Illuminated
May 10
New Moon
May 17
First Quarter
May 24
Full
May 31
Last Quarter
Jun 8
New

Hourly Weather History & Observations

Time (CDT) Temp. Windchill Dew Point Humidity Pressure Visibility Wind Dir Wind Speed Gust Speed Precip Events Conditions
12:52 AM 44.1 °F 41.5 °F 27.0 °F 51% 30.16 in 10.0 mi NW 4.6 mph - N/A   Mostly Cloudy
1:52 AM 46.9 °F - 25.0 °F 42% 30.14 in 10.0 mi ENE 5.8 mph - N/A   Clear
2:52 AM 39.0 °F - 25.0 °F 57% 30.14 in 10.0 mi Calm Calm - N/A   Clear
3:52 AM 42.1 °F - 25.0 °F 51% 30.13 in 10.0 mi Calm Calm - N/A   Clear
4:52 AM 34.0 °F - 24.1 °F 67% 30.13 in 10.0 mi Calm Calm - N/A   Clear
5:52 AM 32.0 °F 28.7 °F 24.1 °F 73% 30.12 in 10.0 mi NE 3.5 mph - N/A   Clear
6:52 AM 35.1 °F - 26.1 °F 70% 30.12 in 10.0 mi Calm Calm - N/A   Clear
7:52 AM 41.0 °F - 32.0 °F 70% 30.12 in 10.0 mi Calm Calm - N/A   Clear
8:52 AM 46.0 °F 43.1 °F 30.9 °F 56% 30.12 in 10.0 mi SSE 5.8 mph - N/A   Clear
9:08 AM 48.2 °F - 33.8 °F 58% 30.09 in 10.0 mi South 6.9 mph - N/A   Partly Cloudy
9:52 AM 53.1 °F - 35.1 °F 50% 30.09 in 10.0 mi South 6.9 mph - N/A   Clear
10:52 AM 57.9 °F - 39.0 °F 49% 30.07 in 10.0 mi SSE 9.2 mph - N/A   Clear
11:52 AM 66.0 °F - 28.9 °F 25% 30.05 in 10.0 mi SSW 11.5 mph - N/A   Clear
12:52 PM 71.1 °F - 33.1 °F 25% 30.02 in 10.0 mi SSW 10.4 mph - N/A   Clear
1:52 PM 75.9 °F - 36.0 °F 23% 29.99 in 10.0 mi NW 16.1 mph 19.6 mph N/A   Clear
2:52 PM 79.0 °F - 36.0 °F 21% 29.96 in 10.0 mi WNW 15.0 mph 21.9 mph N/A   Clear
3:52 PM 75.0 °F - 37.0 °F 25% 29.95 in 10.0 mi NNW 19.6 mph 32.2 mph N/A   Mostly Cloudy
4:52 PM 69.1 °F - 35.1 °F 29% 30.00 in 10.0 mi North 21.9 mph 31.1 mph N/A   Partly Cloudy
5:52 PM 69.1 °F - 30.9 °F 24% 30.04 in 10.0 mi NNW 21.9 mph 28.8 mph 0.00 in   Partly Cloudy
6:52 PM 66.0 °F - 28.9 °F 25% 30.06 in 10.0 mi NNW 19.6 mph 25.3 mph N/A   Clear
7:52 PM 63.0 °F - 28.9 °F 28% 30.08 in 10.0 mi North 20.7 mph 28.8 mph N/A   Clear
8:52 PM 57.0 °F - 28.9 °F 34% 30.12 in 10.0 mi North 13.8 mph - N/A   Clear
9:52 PM 53.1 °F - 28.9 °F 40% 30.15 in 10.0 mi NNW 9.2 mph - N/A   Clear
10:52 PM 48.9 °F - 26.1 °F 41% 30.20 in 10.0 mi NNW 10.4 mph - N/A   Clear
11:52 PM 48.9 °F - 24.1 °F 38% 30.22 in 10.0 mi NNW 11.5 mph - N/A   Clear